Trapani, Italy

3:45 PM CEST on September 22, 2017 (GMT +0200)
Birgi Mil

Weather History for LICT - January, 2013

Change the Weather History Date:

Monday, January 7, 2013

  Actual Average Record
Temperature  
Mean Temperature 54 °F -  
Max Temperature 61 °F 59 °F 66 °F (2001)
Min Temperature 46 °F 47 °F 37 °F (1999)
Degree Days  
Heating Degree Days 10    
Growing Degree Days 4 (Base 50)    
Moisture  
Dew Point 53 °F    
Average Humidity 88    
Maximum Humidity 100    
Minimum Humidity 82    
Precipitation  
Precipitation 0.00 in 0.07 in - ()
Sea Level Pressure  
Sea Level Pressure 30.14 in    
Wind  
Wind Speed 4 mph ()    
Max Wind Speed 13 mph    
Max Gust Speed -    
Visibility 6.7 miles    
Events      
Averages and records for this station are not official NWS values.
T = Trace of Precipitation, MM = Missing Value Source: Averaged Metar Reports

Daily Weather History Graph

Daily Weather History Graph

Search for Another Location

Airport or City:

Trip Planner

Search our weather history database for the weather conditions in past years. The results will help you decide how hot, cold, wet, or windy it might be!

Date:

Astronomy

Jan. 07, 2013 Rise Set
Actual Time 7:26 AM CET 5:06 PM CET
Civil Twilight 6:57 AM CET 5:35 PM CET
Nautical Twilight 6:24 AM CET 6:08 PM CET
Astronomical Twilight 5:52 AM CET 6:40 PM CET
Moon 2:31 AM CET (1/7) 1:03 PM CET (1/7)
Length of Visible Light 10h 38m
Length of Day
9h 40m
Waning Crescent, 25% of the Moon is Illuminated
Jan 7
Waning Crescent
Jan 11
New
Jan 19
First Quarter
Jan 27
Full
Feb 3
Last Quarter

Hourly Weather History & Observations

Time (CET) Temp. Dew Point Humidity Pressure Visibility Wind Dir Wind Speed Gust Speed Precip Events Conditions
12:55 AM 55.4 °F 51.8 °F 88% 30.18 in 6.2 mi West 3.5 mph - N/A   Mostly Cloudy
1:00 AM 55 °F 52 °F 86% 30.18 in 10 mi West 3.5 mph - -   Mostly Cloudy
1:55 AM 55.4 °F 51.8 °F 88% 30.15 in 6.2 mi Calm Calm - N/A   Mostly Cloudy
2:55 AM 55.4 °F 51.8 °F 88% 30.12 in 6.2 mi SW 1.2 mph - N/A   Mostly Cloudy
3:55 AM 55.4 °F 51.8 °F 88% 30.12 in 6.2 mi WSW 3.5 mph - N/A   Mostly Cloudy
4:55 AM 57.2 °F 53.6 °F 88% 30.09 in 6.2 mi West 3.5 mph - N/A   Mostly Cloudy
5:55 AM 57.2 °F 53.6 °F 88% 30.12 in 6.2 mi West 5.8 mph - N/A   Mostly Cloudy
6:55 AM 57.2 °F 53.6 °F 88% 30.12 in 6.2 mi West 4.6 mph - N/A   Mostly Cloudy
7:00 AM 57 °F 54 °F 86% 30.13 in 10 mi West 4.6 mph - -   Mostly Cloudy
7:55 AM 57.2 °F 53.6 °F 88% 30.12 in 6.2 mi WNW 11.5 mph - N/A   Mostly Cloudy
8:55 AM 57.2 °F 53.6 °F 88% 30.12 in 6.2 mi WNW 11.5 mph - N/A   Mostly Cloudy
9:55 AM 59.0 °F 53.6 °F 82% 30.12 in 6.2 mi WNW 11.5 mph - N/A   Mostly Cloudy
10:55 AM 57.2 °F 53.6 °F 88% 30.15 in 6.2 mi WNW 12.7 mph - N/A   Mostly Cloudy
11:55 AM 59.0 °F 55.4 °F 88% 30.12 in 6.2 mi WNW 11.5 mph - N/A   Mostly Cloudy
12:55 PM 60.8 °F 55.4 °F 82% 30.09 in 6.2 mi WNW 3.5 mph - N/A   Scattered Clouds
1:00 PM 60 °F 56 °F 83% 30.12 in 12 mi WNW 3.5 mph - -   Mostly Cloudy
1:55 PM 60.8 °F 55.4 °F 82% 30.09 in 6.2 mi NW 5.8 mph - N/A   Scattered Clouds
2:55 PM 60.8 °F 55.4 °F 82% 30.09 in 6.2 mi NNW 6.9 mph - N/A   Scattered Clouds
3:55 PM 59.0 °F 55.4 °F 88% 30.12 in 6.2 mi North 6.9 mph - N/A   Scattered Clouds
4:55 PM 57.2 °F 53.6 °F 88% 30.12 in 6.2 mi North 8.1 mph - N/A   Scattered Clouds
5:55 PM 57.2 °F 53.6 °F 88% 30.15 in 6.2 mi North 5.8 mph - N/A   Scattered Clouds
6:55 PM 55.4 °F 53.6 °F 94% 30.15 in 6.2 mi North 3.5 mph - N/A   Scattered Clouds
7:00 PM 56 °F 53 °F 86% 30.17 in 7 mi North 3.5 mph - -   Partly Cloudy
7:55 PM 53.6 °F 51.8 °F 94% 30.18 in 6.2 mi Calm Calm - N/A   Scattered Clouds
8:55 PM 51.8 °F 50.0 °F 94% 30.18 in 6.2 mi Calm Calm - N/A   Scattered Clouds
9:55 PM 51.8 °F 50.0 °F 94% 30.21 in 6.2 mi Calm Calm - N/A   Scattered Clouds
10:55 PM 48.2 °F 46.4 °F 93% 30.24 in 6.2 mi Calm Calm - N/A   Scattered Clouds
11:55 PM 46.4 °F 46.4 °F 100% 30.24 in 6.2 mi Calm Calm - N/A   Partly Cloudy